Alpena, MI

6:37 PM EST on December 14, 2017 (GMT -0500)
Alpena County Regional

Weather History for KAPN - November, 2010

Change the Weather History Date:

Sunday, November 7, 2010

  Actual Average Record
Temperature  
Mean Temperature 42 °F 39 °F  
Max Temperature 54 °F 47 °F 68 °F (2016)
Min Temperature 29 °F 31 °F 12 °F (1991)
Degree Days  
Heating Degree Days 23 26  
Month to date heating degree days 197 177  
Since 1 July heating degree days 1005 1121  
Moisture  
Dew Point 29 °F    
Average Humidity 67    
Maximum Humidity 92    
Minimum Humidity 41    
Precipitation  
Precipitation 0.00 in 0.07 in 2.30 in (1924)
Month to date precipitation 0.11 0.51  
Year to date precipitation 24.66 24.82  
Snow  
Snow 0.00 in 0.20 in 7.00 in (1951)
Month to date snowfall 0.1 0.9  
Since 1 July snowfall 0.1 1.3  
Snow Depth 0.00 in    
Sea Level Pressure  
Sea Level Pressure 30.18 in    
Wind  
Wind Speed 5 mph (SSW)    
Max Wind Speed 13 mph    
Max Gust Speed 17 mph    
Visibility 10 miles    
Events      
T = Trace of Precipitation, MM = Missing Value Source: NWS Daily Summary

Daily Weather History Graph

Daily Weather History Graph

Search for Another Location

Airport or City:

Trip Planner

Search our weather history database for the weather conditions in past years. The results will help you decide how hot, cold, wet, or windy it might be!

Date:

Astronomy

Nov. 07, 2010 Rise Set
Actual Time 7:21 AM EST 5:14 PM EST
Civil Twilight 6:49 AM EST 5:45 PM EST
Nautical Twilight 6:14 AM EST 6:20 PM EST
Astronomical Twilight 5:40 AM EST 6:54 PM EST
Moon 9:13 AM EST (11/7) 6:04 PM EST (11/7)
Length of Visible Light 10h 55m
Length of Day
9h 53m
Waxing Crescent, 3% of the Moon is Illuminated
Nov 7
Waxing Crescent
Nov 13
First Quarter
Nov 21
Full
Nov 28
Last Quarter
Dec 5
New

Hourly Weather History & Observations

Time (EST) Temp. Windchill Dew Point Humidity Pressure Visibility Wind Dir Wind Speed Gust Speed Precip Events Conditions
12:54 AM 36.0 °F 29.0 °F 23.0 °F 59% 30.27 in 10.0 mi SSW 9.2 mph - N/A   Clear
1:54 AM 36.0 °F 31.1 °F 24.1 °F 62% 30.27 in 10.0 mi SW 5.8 mph - N/A   Scattered Clouds
1:54 AM 34.0 °F 29.8 °F 25.0 °F 70% 30.27 in 10.0 mi SSW 4.6 mph - N/A   Clear
2:54 AM 34.0 °F 28.0 °F 25.0 °F 70% 30.25 in 10.0 mi SSW 6.9 mph - N/A   Clear
3:54 AM 34.0 °F 26.0 °F 26.1 °F 73% 30.24 in 10.0 mi South 10.4 mph - N/A   Clear
4:54 AM 36.0 °F 28.0 °F 27.0 °F 70% 30.22 in 10.0 mi SSW 11.5 mph - N/A   Clear
5:54 AM 36.0 °F 29.0 °F 27.0 °F 70% 30.21 in 10.0 mi SSW 9.2 mph - N/A   Clear
6:54 AM 35.1 °F 29.3 °F 27.0 °F 72% 30.22 in 10.0 mi SSW 6.9 mph - N/A   Clear
7:54 AM 36.0 °F 30.3 °F 28.0 °F 73% 30.22 in 10.0 mi SSW 6.9 mph - N/A   Clear
8:54 AM 37.9 °F 32.1 °F 28.0 °F 68% 30.21 in 10.0 mi SSW 8.1 mph - N/A   Clear
9:54 AM 39.9 °F 32.9 °F 28.9 °F 65% 30.20 in 10.0 mi SW 11.5 mph 17.3 mph N/A   Clear
10:54 AM 46.0 °F 41.4 °F 30.0 °F 54% 30.19 in 10.0 mi SW 9.2 mph - N/A   Clear
11:54 AM 48.9 °F - 30.0 °F 48% 30.17 in 10.0 mi WSW 6.9 mph - N/A   Clear
12:54 PM 51.1 °F - 30.9 °F 46% 30.14 in 10.0 mi South 5.8 mph - N/A   Clear
1:54 PM 52.0 °F - 30.9 °F 45% 30.12 in 10.0 mi SW 5.8 mph - N/A   Clear
2:54 PM 54.0 °F - 30.0 °F 40% 30.11 in 10.0 mi SW 4.6 mph - N/A   Clear
3:54 PM 50.0 °F - 33.1 °F 52% 30.11 in 10.0 mi East 5.8 mph - N/A   Clear
4:54 PM 46.9 °F - 33.1 °F 59% 30.11 in 10.0 mi East 4.6 mph - N/A   Clear
5:54 PM 43.0 °F - 33.1 °F 68% 30.11 in 10.0 mi Calm Calm - N/A   Clear
6:54 PM 39.0 °F - 33.1 °F 79% 30.12 in 10.0 mi Calm Calm - N/A   Clear
7:54 PM 35.1 °F - 30.9 °F 85% 30.11 in 10.0 mi Calm Calm - N/A   Clear
8:54 PM 33.1 °F - 28.9 °F 85% 30.12 in 10.0 mi Calm Calm - N/A   Clear
9:54 PM 30.9 °F - 28.0 °F 89% 30.11 in 10.0 mi Calm Calm - N/A   Clear
10:54 PM 30.0 °F - 27.0 °F 88% 30.11 in 10.0 mi Calm Calm - N/A   Clear